Location: Claremont
(33.9858°S, 18.4575°E)
Time: 11:23:01
(UTC+00:00)

Meteor 2-4 Rocket - Pass Details

Date: 03 March 2021
Orbit: 800 x 908 km, 81.2° (Epoch: 09 April)

Event Time Altitude Azimuth Distance (km) Brightness Sun altitude
Rises 19:09:10 0° 349° (N) 3,516 6.8 -22.5°
Reaches altitude 10° 19:11:38 10° 348° (NNW) 2,576 6.1 -23.0°
Maximum altitude 19:17:32 76° 262° (W) 927 3.9 -24.1°
Drops below altitude 10° 19:23:22 10° 175° (S) 2,552 6.4 -25.1°
Sets 19:25:48 0° 173° (S) 3,481 7.2 -25.6°
